Find Globalstar M025

NORAD ID: 25770 Int'l Des: 1999-031 Owner: GLOBT Country: US Constellation: globalstar operational
MEOCIRCULAR

Live Position

Loading 3D Globe...

About Globalstar M025

Description loading...

Upcoming Passes

Passes for default location (London). Set your location on the main map for personalized predictions.

Altitude History

Loading altitude history...

Two-Line Element Set

1 25770U 99031A 26111.87341529 -.00000064 00000-0 95753-4 0 9997
2 25770 51.9791 164.1742 0002167 282.5709 248.1788 11.22561012516370
Epoch: Apr 21, 2026 • Age: 6 hours

Current Status

Altitude 2052.1 km
Velocity 6.88 km/s
Sub-Earth Point 39.79°N, 46.36°W
Launch Date Jun 10, 1999
Age 26.8 years
Type communications

Technical Details

Classification Payload
Mass 450.00 kg
Dry Mass 380.00 kg
Total Mass 450.00 kg
Length 1.50 m
Diameter 0.60 m
Span 12.00 m
Shape Box + 2 Pan
Manufacturer LOR
Bus Type LS-400
Phase Status In Orbit
Owner/State GLOBT/US

Most Searched